This is the latest recevied weather packets stored in our database for station/object WE0DX-1. If no packets are shown the sender has not sent any weather packets the latest 10 day(s).
| Time | Temp. | Humidity | Pressure | Rain* | Wind** | Luminosity | Snow |
|---|---|---|---|---|---|---|---|
| 1777622365 | 6.11° C | 81% | 1018.5 hPa | 0 mm | - | 0 W/m² | - |
| 1777622062 | 6.11° C | 81% | 1018.6 hPa | 0 mm | - | 0 W/m² | - |
| 1777621762 | 6.11° C | 80% | 1018.4 hPa | 0 mm | - | 0 W/m² | - |
| 1777621459 | 6.67° C | 79% | 1018.8 hPa | 0 mm | - | 0 W/m² | - |
| 1777621155 | 7.22° C | 77% | 1018.7 hPa | 0 mm | - | 0 W/m² | - |
| 1777620851 | 7.78° C | 74% | 1018.7 hPa | 0 mm | - | 0 W/m² | - |
| 1777620547 | 7.78° C | 69% | 1018.7 hPa | 0 mm | - | 0 W/m² | - |
| 1777620244 | 7.78° C | 73% | 1018.9 hPa | 0 mm | - | 0 W/m² | - |
| 1777619941 | 7.78° C | 69% | 1018.8 hPa | 0 mm | - | 0 W/m² | - |
| 1777619636 | 7.78° C | 69% | 1018.9 hPa | 0 mm | - | 0 W/m² | - |
| 1777619331 | 8.33° C | 68% | 1019 hPa | 0 mm | - | 0 W/m² | - |
| 1777619026 | 8.33° C | 67% | 1018.9 hPa | 0 mm | - | 0 W/m² | - |
| 1777618721 | 8.33° C | 68% | 1019 hPa | 0 mm | - | 0 W/m² | - |
| 1777618416 | 8.33° C | 66% | 1019 hPa | 0 mm | - | 0 W/m² | - |
| 1777618113 | 8.33° C | 65% | 1019.1 hPa | 0 mm | - | 0 W/m² | - |
| 1777617811 | 8.33° C | 64% | 1019 hPa | 0 mm | - | 0 W/m² | - |
| 1777617510 | 8.33° C | 65% | 1019 hPa | 0 mm | - | 0 W/m² | - |
| 1777617208 | 8.33° C | 65% | 1019 hPa | 0 mm | - | 0 W/m² | - |
| 1777616904 | 8.33° C | 65% | 1019 hPa | 0 mm | - | 0 W/m² | - |
| 1777616600 | 8.89° C | 65% | 1019 hPa | 0 mm | - | 0 W/m² | - |
| 1777616296 | 8.89° C | 65% | 1018.9 hPa | 0 mm | - | 0 W/m² | - |
| 1777615992 | 8.89° C | 65% | 1019.2 hPa | 0 mm | - | 0 W/m² | - |
| 1777615689 | 8.89° C | 65% | 1019 hPa | 0 mm | - | 0 W/m² | - |
| 1777615386 | 8.89° C | 65% | 1019.2 hPa | 0 mm | - | 0 W/m² | - |
| 1777615085 | 8.89° C | 65% | 1019.2 hPa | 0 mm | - | 0 W/m² | - |
* Rain latest hour (hover to see other rain measurements)
** Current wind speed in m/s (hover to see current wind gust speed)